Weather in Horst

Netherlands     51°27′17″N   6°03′23″E
temp.,
°C
wind,
m/s
gust,
m/s
humid.,
%
clouds,
%
prec.,
mm/h
press.,
hPa
HPBL,
m
25 february, thu
thu2501:00+11ssw36910 0.0 1027127
04:00+11ssw49920 0.0 1025198
07:00+10ssw510920 0.0 1026212
10:00+12sw588554 0.0 1026332
13:00+16wsw346073 0.0 1027683
16:00+15nw2365100 0.0 1026299
19:00+12nw3580100 0.6 1027164
22:00+11nw2390100 1.5 1029127
26 february, fri
fri2601:00+9nnw2294100 1.8 103074
04:00+8n3687100 0.1 1031377
07:00+8nw2386100 0.2 1032198
10:00+9nnw467561 0.0 1034484
13:00+11nnw455731 0.0 10351134
16:00+10nnw56540 0.0 10341313
19:00+6n36710 0.0 1036149
22:00+5nnw34800 0.0 103794
27 february, sat
sat2701:00+3nnw23870 0.0 103839
04:00+3nnw22900 0.0 103823
07:00+2nnw12910 0.0 103922
10:00+6nnw22730 0.0 1039260
13:00+9nne22600 0.0 1039770
16:00+10nne34580 0.0 1038875
19:00+6nne22730 0.0 103822
22:00+5nne23810 0.0 103827
28 february, sun
sun2801:00+4nne23880 0.0 103828
04:00+3nne23930 0.0 103741
07:00+2nne22920 0.0 103722
10:00+6ne34780 0.0 1037273
13:00+10ne34680 0.0 1036714
16:00+10nne456826 0.0 1034947
19:00+6ne347828 0.0 103465
22:00+5ne34830 0.0 103579
1 march, mon
mon101:00+4ne34910 0.0 103580
04:00+3ene34910 0.0 103480
07:00+2ene34920 0.0 103459
10:00+7e46760 0.0 1034337
13:00+11e46610 0.0 1033888
16:00+11ene45570 0.0 10311090
19:00+8ene511781 0.0 1031272
22:00+6e368025 0.0 1032122